Rechercher aéroport 
image banner adimage banner adimage banner ad
image banner ad

D86 - Sequoia Field

Situé à Visalia, United States

ICAO - D86, IATA -

Données fournies par Airmate  

Information générale

Coordonnées: N36°26'53" W119°19'7"
Élévation : 313 feet MSL.
Variation magnétique : 15° East
Voir autres Aéroports à California

Données opérationnelles

Special qualification required
Heure actuelle UTC:
Heure actuelle locale:
Météo à : KVIS - Visalia Muni ( 16 km )
METAR: KVIS 270556Z AUTO 19004KT 10SM CLR 26/18 A2991 RMK AO2 SLP132 T02560183 10306 20256 53009
TAF: KVIS 270520Z 2706/2806 29005KT P6SM SCT200
Voir NOTAMs / SUP AIP / TFR affectant cet aéroport [VIEW]
Fréquences de communication: [VIEW]

Pistes:

Identifiant RWYQFULongueur (ft)Largeur (ft)SurfaceLDA (ft)
13301260ASPH
31301260ASPH

Coordonnées de l'aéroport

Adresse: Visalia United States

Vue satellite de D86